FW7625 Weather Reports


time (UTC)temp
C
wind
direction
speed
KPH
gust
KPH
rain 1hr
cm
rain 24hr
cm
rain mn
cm
humidity
%
barometer
mb
20260503213226 27 175 1.6 3.2 0.00 0.00 0.00 47 1012.0
20260503212722 26 5 3.2 3.2 0.00 0.00 0.00 46 1012.3
20260503212220 26 245 0.0 4.8 0.00 0.00 0.00 50 1012.7
20260503211718 27 22 3.2 4.8 0.00 0.00 0.00 49 1012.7
20260503211213 26 335 0.0 4.8 0.00 0.00 0.00 49 1012.7
20260503210709 26 318 0.0 3.2 0.00 0.00 0.00 52 1012.7
20260503210207 26 54 1.6 3.2 0.00 0.00 0.00 48 1012.7
20260503205702 26 358 0.0 3.2 0.00 0.00 0.00 49 1012.7
20260503205158 26 45 0.0 3.2 0.00 0.00 0.00 51 1012.7
20260503204655 26 312 0.0 3.2 0.00 0.00 0.00 50 1012.7
20260503204153 25 332 0.0 3.2 0.00 0.00 0.00 49 1012.7
20260503203649 25 325 3.2 6.4 0.00 0.00 0.00 49 1013.0
20260503203147 26 0 1.6 1.6 0.00 0.00 0.00 54 1013.0
20260503202644 25 287 1.6 3.2 0.00 0.00 0.00 48 1013.3
20260503202142 25 279 1.6 3.2 0.00 0.00 0.00 49 1013.3
20260503201640 25 30 3.2 4.8 0.00 0.00 0.00 52 1013.0
20260503201137 25 79 1.6 1.6 0.00 0.00 0.00 52 1013.0
20260503200633 25 214 1.6 3.2 0.00 0.00 0.00 52 1013.3
20260503200130 25 322 0.0 3.2 0.00 0.00 0.00 51 1013.3
20260503195627 25 308 0.0 3.2 0.00 0.00 0.00 53 1013.3
20260503195124 25 270 0.0 3.2 0.00 0.00 0.00 52 1013.3
20260503194621 24 323 0.0 4.8 0.00 0.00 0.00 54 1013.7
20260503194116 24 270 3.2 3.2 0.00 0.00 0.00 53 1013.7
20260503193613 24 359 1.6 3.2 0.00 0.00 0.00 55 1013.7
20260503193108 24 182 3.2 3.2 0.00 0.00 0.00 56 1013.7
20260503192604 23 235 3.2 4.8 0.00 0.00 0.00 54 1013.7
20260503192100 23 11 3.2 3.2 0.00 0.00 0.00 57 1013.7
20260503191557 23 53 3.2 4.8 0.00 0.00 0.00 57 1014.0
20260503191054 23 243 3.2 4.8 0.00 0.00 0.00 57 1014.0
20260503190551 23 281 3.2 4.8 0.00 0.00 0.00 57 1014.0
20260503190048 23 248 1.6 1.6 0.00 0.00 0.00 57 1014.0
20260503185544 23 292 0.0 1.6 0.00 0.00 0.00 59 1014.0
20260503185044 22 35 0.0 3.2 0.00 0.00 0.00 63 1014.3
20260503184540 23 349 1.6 1.6 0.00 0.00 0.00 62 1014.3
20260503184037 22 5 0.0 3.2 0.00 0.00 0.00 62 1014.3
20260503183534 22 59 3.2 3.2 0.00 0.00 0.00 62 1014.3
20260503183031 22 340 0.0 6.4 0.00 0.00 0.00 62 1014.3
20260503182529 22 332 0.0 1.6 0.00 0.00 0.00 61 1014.3
20260503182027 22 314 0.0 1.6 0.00 0.00 0.00 62 1014.3
20260503181524 22 288 0.0 3.2 0.00 0.00 0.00 62 1014.3
20260503181020 21 40 1.6 3.2 0.00 0.00 0.00 62 1014.3
20260503180518 22 346 0.0 3.2 0.00 0.00 0.00 61 1014.3
20260503180015 22 34 0.0 1.6 0.00 0.00 0.00 65 1014.3
20260503175512 21 13 1.6 4.8 0.00 0.00 0.00 64 1014.3
20260503175009 22 325 0.0 1.6 0.00 0.00 0.00 63 1014.3
20260503174507 21 55 1.6 4.8 0.00 0.00 0.00 64 1014.3
20260503174002 20 291 0.0 4.8 0.00 0.00 0.00 61 1014.3
20260503173457 21 323 1.6 3.2 0.00 0.00 0.00 63 1014.3
20260503172954 21 71 1.6 1.6 0.00 0.00 0.00 63 1014.7
20260503172452 21 59 1.6 3.2 0.00 0.00 0.00 60 1014.7
20260503171948 21 315 1.6 1.6 0.00 0.00 0.00 65 1014.7
20260503171445 20 286 3.2 4.8 0.00 0.00 0.00 61 1014.7
20260503170943 21 330 0.0 1.6 0.00 0.00 0.00 64 1014.7
20260503170438 21 310 0.0 0.0 0.00 0.00 0.00 64 1014.7
20260503150831 20 36 1.6 1.6 0.00 0.00 0.00 67 1014.7
20260503150327 19 337 0.0 1.6 0.00 0.00 0.00 67 1015.0
20260503140251 12 8 0.0 0.0 0.00 0.00 0.00 96 1014.7
20260503131221 11 37 0.0 0.0 0.00 0.00 0.00 97 1014.7
20260503130719 10 17 0.0 0.0 0.00 0.00 0.00 96 1014.7
20260503130216 10 9 0.0 0.0 0.00 0.00 0.00 96 1014.7
20260503120141 11 82 0.0 1.6 0.00 0.00 0.00 94 1015.0
20260503110609 12 95 0.0 1.6 0.00 0.00 0.00 89 1015.4
20260503110106 12 93 1.6 1.6 0.00 0.00 0.00 88 1014.7
20260503090456 13 55 0.0 0.0 0.00 0.00 0.00 78 1015.4
20260503081422 13 9 0.0 0.0 0.00 0.00 0.00 76 1015.4
20260503080919 13 9 0.0 0.0 0.00 0.00 0.00 76 1015.4
20260503080416 14 5 0.0 0.0 0.00 0.00 0.00 75 1015.4
20260503072852 15 33 0.0 0.0 0.00 0.00 0.00 70 1015.4
20260503072349 15 27 0.0 0.0 0.00 0.00 0.00 69 1015.4
20260503071846 15 12 0.0 0.0 0.00 0.00 0.00 69 1015.4
20260503071343 15 24 0.0 0.0 0.00 0.00 0.00 68 1015.4
20260503070839 15 14 0.0 0.0 0.00 0.00 0.00 68 1015.4
20260503070337 15 20 0.0 0.0 0.00 0.00 0.00 68 1015.4
20260503060303 16 358 0.0 0.0 0.00 0.00 0.00 63 1015.4
20260503054750 17 2 0.0 0.0 0.00 0.00 0.00 60 1015.0
20260503054246 17 325 0.0 0.0 0.00 0.00 0.00 60 1015.0
20260503053744 17 325 0.0 0.0 0.00 0.00 0.00 60 1015.0
20260503053243 17 323 0.0 0.0 0.00 0.00 0.00 59 1015.0
20260503052738 17 332 0.0 0.0 0.00 0.00 0.00 59 1015.0
20260503052235 17 326 0.0 1.6 0.00 0.00 0.00 59 1015.0
20260503051730 17 14 0.0 0.0 0.00 0.00 0.00 58 1014.7
20260503051228 17 316 0.0 0.0 0.00 0.00 0.00 58 1015.0
20260503050724 17 320 0.0 1.6 0.00 0.00 0.00 58 1014.7
20260503050221 18 338 0.0 0.0 0.00 0.00 0.00 57 1015.0
20260503045719 18 350 0.0 1.6 0.00 0.00 0.00 56 1015.0
20260503045216 17 331 0.0 0.0 0.00 0.00 0.00 59 1014.7
20260503044712 17 321 0.0 0.0 0.00 0.00 0.00 58 1015.0
20260503044210 18 315 0.0 1.6 0.00 0.00 0.00 58 1014.7
20260503043706 18 315 0.0 0.0 0.00 0.00 0.00 57 1014.7
20260503043204 18 307 0.0 1.6 0.00 0.00 0.00 57 1014.7
20260503042659 18 313 0.0 1.6 0.00 0.00 0.00 57 1014.7
20260503042156 18 284 1.6 1.6 0.00 0.00 0.00 58 1014.7
20260503041652 18 12 0.0 3.2 0.00 0.00 0.00 58 1014.7
20260503041150 18 320 0.0 1.6 0.00 0.00 0.00 60 1014.3
20260503040648 18 323 0.0 1.6 0.00 0.00 0.00 62 1014.3
20260503040145 18 338 0.0 0.0 0.00 0.00 0.00 63 1014.7
20260503035641 18 320 0.0 0.0 0.00 0.00 0.00 64 1014.3
20260503035139 18 325 0.0 0.0 0.00 0.00 0.00 65 1014.3
20260503034636 18 319 0.0 1.6 0.00 0.00 0.00 64 1014.3
20260503034133 18 5 0.0 1.6 0.00 0.00 0.00 65 1014.3
20260503033630 18 335 0.0 0.0 0.00 0.00 0.00 65 1014.3
20260503033128 19 18 0.0 1.6 0.00 0.00 0.00 65 1014.0
20260503032626 19 6 0.0 1.6 0.00 0.00 0.00 64 1013.7
20260503032125 20 335 0.0 1.6 0.00 0.00 0.00 63 1014.0
20260503031622 20 335 0.0 3.2 0.00 0.00 0.00 62 1014.0
20260503031119 20 356 1.6 3.2 0.00 0.00 0.00 63 1014.0
20260503030615 20 329 0.0 3.2 0.00 0.00 0.00 63 1013.7
20260503030112 20 322 0.0 0.0 0.00 0.00 0.00 65 1013.7
20260503025609 20 35 0.0 1.6 0.00 0.00 0.00 62 1013.7
20260503025107 20 21 0.0 1.6 0.00 0.00 0.00 62 1013.7
20260503024602 21 346 0.0 0.0 0.00 0.00 0.00 62 1013.7
20260503024100 21 3 0.0 4.8 0.00 0.00 0.00 61 1013.3
20260503023556 21 325 3.2 4.8 0.00 0.00 0.00 60 1013.7
20260503023054 21 306 4.8 6.4 0.00 0.00 0.00 59 1013.7
20260503022550 22 28 1.6 3.2 0.00 0.00 0.00 60 1013.7
20260503022044 22 119 1.6 3.2 0.00 0.00 0.00 59 1013.7
20260503021542 22 40 1.6 3.2 0.00 0.00 0.00 58 1013.7
20260503021039 23 14 0.0 1.6 0.00 0.00 0.00 58 1013.7
20260503020536 22 1 0.0 1.6 0.00 0.00 0.00 59 1013.7
20260503020033 23 330 0.0 1.6 0.00 0.00 0.00 57 1013.7
20260503015529 23 27 1.6 3.2 0.00 0.00 0.00 57 1013.7
20260503015027 23 3 0.0 1.6 0.00 0.00 0.00 59 1013.3
20260503014522 23 318 0.0 1.6 0.00 0.00 0.00 58 1013.7
20260503014021 23 1 1.6 6.4 0.00 0.00 0.00 55 1013.7
20260503013517 23 76 1.6 3.2 0.00 0.00 0.00 57 1013.7
20260503013015 23 14 3.2 4.8 0.00 0.00 0.00 53 1013.7
20260503012513 23 357 0.0 1.6 0.00 0.00 0.00 57 1013.7
20260503012009 23 31 1.6 3.2 0.00 0.00 0.00 55 1014.0
20260503011506 23 21 0.0 1.6 0.00 0.00 0.00 56 1013.7
20260503011003 23 354 0.0 3.2 0.00 0.00 0.00 54 1013.7
20260503010459 23 311 0.0 1.6 0.00 0.00 0.00 54 1013.7
20260503005956 23 8 0.0 3.2 0.00 0.00 0.00 55 1013.7
20260503005453 23 39 1.6 3.2 0.00 0.00 0.00 55 1013.7
20260503004950 23 354 3.2 4.8 0.00 0.00 0.00 54 1013.7
20260503004447 24 345 3.2 3.2 0.00 0.00 0.00 54 1013.7
20260503003945 23 44 1.6 3.2 0.00 0.00 0.00 53 1013.7
20260503003441 24 316 0.0 3.2 0.00 0.00 0.00 54 1014.0
20260503002938 24 5 1.6 1.6 0.00 0.00 0.00 54 1013.7
20260503002435 23 36 3.2 6.4 0.00 0.00 0.00 56 1013.7
20260503001932 23 71 1.6 4.8 0.00 0.00 0.00 55 1014.0
20260503001428 23 62 0.0 4.8 0.00 0.00 0.00 57 1013.7
20260503000926 24 17 0.0 4.8 0.00 0.00 0.00 56 1014.0
20260503000423 24 134 1.6 6.4 0.00 0.00 0.00 55 1013.7
20260502235920 24 355 1.6 6.4 0.00 0.00 0.00 52 1013.7
20260502235417 23 277 0.0 4.8 0.00 0.00 0.00 55 1013.7
20260502234914 23 30 1.6 4.8 0.00 0.00 0.00 54 1014.0
20260502234411 23 293 3.2 4.8 0.00 0.00 0.00 54 1014.0
20260502233908 24 11 3.2 6.4 0.00 0.00 0.00 53 1014.3
20260502233403 24 15 1.6 9.7 0.00 0.00 0.00 54 1014.3
20260502232900 24 72 1.6 4.8 0.00 0.00 0.00 54 1014.3
20260502232357 25 81 1.6 4.8 0.00 0.00 0.00 53 1014.3
20260502231853 25 5 0.0 6.4 0.00 0.00 0.00 53 1014.3
20260502231351 23 298 1.6 3.2 0.00 0.00 0.00 54 1014.7
20260502230849 23 20 0.0 3.2 0.00 0.00 0.00 59 1014.7
20260502230347 23 329 0.0 3.2 0.00 0.00 0.00 56 1014.7
20260502225844 24 296 0.0 1.6 0.00 0.00 0.00 57 1014.7
20260502225340 24 18 1.6 4.8 0.00 0.00 0.00 57 1015.0
20260502224837 24 42 0.0 4.8 0.00 0.00 0.00 59 1015.0
20260502224333 23 30 0.0 4.8 0.00 0.00 0.00 60 1014.7
20260502223831 23 58 1.6 3.2 0.00 0.00 0.00 60 1015.0
20260502223329 24 335 0.0 4.8 0.00 0.00 0.00 59 1015.0
20260502222826 23 2 1.6 3.2 0.00 0.00 0.00 63 1015.0
20260502222324 23 49 1.6 3.2 0.00 0.00 0.00 63 1015.0
20260502221819 22 89 1.6 4.8 0.00 0.00 0.00 64 1015.4
20260502221316 22 74 1.6 6.4 0.00 0.00 0.00 64 1015.4
20260502220813 22 352 0.0 3.2 0.00 0.00 0.00 62 1015.0
20260502220309 22 280 3.2 4.8 0.00 0.00 0.00 62 1015.0
20260502215806 22 37 0.0 4.8 0.00 0.00 0.00 64 1015.4
20260502215305 22 326 0.0 6.4 0.00 0.00 0.00 64 1015.4
20260502214800 22 14 0.0 9.7 0.00 0.00 0.00 64 1015.4
20260502214256 22 113 3.2 4.8 0.00 0.00 0.00 63 1015.4
20260502213754 23 296 0.0 4.8 0.00 0.00 0.00 62 1015.4
20260502213251 23 295 3.2 3.2 0.00 0.00 0.00 61 1015.4